Date,Time,Air Temperature,Dewpoint,Windchill,Heat Index,RH,3m Max Wind Speed,3m Mean Wind Speed,3m Wind Direction,Rain,Solar Radiation
,,F,F,F,F,%,MPH,MPH,deg,in,MJ/m^2
2024-05-07,12:05,83.5,12.9,83.5,83.5,7.0,27.8,17.4,221.7,0.0,0.2708879
2024-05-07,12:10,84,12.7,84.0,84,6.8,20.1,15.5,209.3,0.0,0.2720472
2024-05-07,12:15,83.9,12,83.9,83.9,6.6,20.6,17.4,231.4,0.0,0.2728144
2024-05-07,12:20,85,11.8,85.0,85,6.4,22.4,17,225.2,0.0,0.2739842
2024-05-07,12:25,84.3,12.2,84.3,84.3,6.6,22.1,17.3,216.8,0.0,0.2747187
2024-05-07,12:30,85.3,13.6,85.3,85.3,6.8,20.6,16.8,221.7,0.0,0.2753101
2024-05-07,12:35,85.2,10.9,85.2,85.2,6.1,24,18.9,224.3,0.0,0.2756437
2024-05-07,12:40,85.8,10.9,85.8,85.8,6.0,23.3,18.5,229.4,0.0,0.2766536
2024-05-07,12:45,85.3,11.9,85.3,85.3,6.3,22.4,16.6,218.5,0.0,0.2773297
2024-05-07,12:50,85.1,10.7,85.1,85.1,6.0,26.4,21,228.7,0.0,0.2775719
2024-05-07,12:55,85.1,8.8,85.1,85.1,5.5,26,20.2,232.2,0.0,0.2777916
2024-05-07,13:00,86.1,13,86.1,86.1,6.5,25.8,18.1,226.9,0.0,0.2772917
2024-05-07,13:05,85.8,11.2,85.8,85.8,6.0,27.8,21.2,225.7,0.0,0.2772957
2024-05-07,13:10,86.6,9.5,86.6,86.6,5.4,23.5,16.6,236.3,0.0,0.2772349
2024-05-07,13:15,86.6,14.4,86.6,86.6,6.8,26,18.4,231.8,0.0,0.2764424
2024-05-07,13:20,86.6,9.8,86.6,86.6,5.5,24.6,19.3,237.4,0.0,0.2764912
2024-05-07,13:25,86.3,9.7,86.3,86.3,5.5,26.9,17.4,236.7,0.0,0.2755429
2024-05-07,13:30,86.8,12.8,86.8,86.8,6.3,25.5,19.8,236.5,0.0,0.2745207
2024-05-07,13:35,87.4,13.1,87.4,87.4,6.2,23.5,19.2,235.5,0.0,0.273758
2024-05-07,13:40,86.7,14.4,86.7,86.7,6.7,27.8,20.6,234.4,0.0,0.2727426
2024-05-07,13:45,86.4,12.6,86.4,86.4,6.3,25.8,20.2,226.5,0.0,0.270987
2024-05-07,13:50,87.6,14.8,87.6,87.6,6.7,28,19.5,227.7,0.0,0.2699385
2024-05-07,13:55,86.8,15.6,86.8,86.8,7.1,27.2,21.2,239.8,0.0,0.2692059
2024-05-07,14:00,87.2,15.4,87.2,87.2,6.9,26.4,21,225.6,0.0,0.2676215
2024-05-07,14:05,86.8,14.8,86.8,86.8,6.8,27.4,19.5,229.5,0.0,0.2659536
2024-05-07,14:10,87.2,16.9,87.2,87.2,7.4,24.4,20.4,221.2,0.0,0.2640985
2024-05-07,14:15,87.2,16.2,87.2,87.2,7.2,24.8,19.8,216.3,0.0,0.2622818
2024-05-07,14:20,87,15.4,87.0,87,7.0,27.2,21.1,225.6,0.0,0.2607265
2024-05-07,14:25,87.7,14.1,87.7,87.7,6.4,27.8,21.7,231.8,0.0,0.259185
2024-05-07,14:30,88,16,88.0,88,6.9,23.5,18.7,231.8,0.0,0.2570624
2024-05-07,14:35,88,15.9,88.0,88,6.9,26.5,20.4,234.9,0.0,0.2554524
2024-05-07,14:40,88.2,15.2,88.2,88.2,6.6,30.3,22.9,236.7,0.0,0.2536992
2024-05-07,14:45,87.7,14.7,87.7,87.7,6.6,29.6,23.1,234.6,0.0,0.2511364
2024-05-07,14:50,88.8,14.1,88.8,88.8,6.2,32.4,23.5,246.4,0.0,0.2485138
2024-05-07,14:55,88.2,13.8,88.2,88.2,6.3,30.8,23.7,254.1,0.0,0.2467779
2024-05-07,15:00,88.3,15.2,88.3,88.3,6.6,31.7,24.9,253.8,0.0,0.2442331
2024-05-07,15:05,88.5,14.1,88.5,88.5,6.3,33,25.9,242.5,0.0,0.2406236
2024-05-07,15:10,89.1,13.1,89.1,89.1,5.9,31.2,23.8,247.7,0.0,0.2370725
2024-05-07,15:15,87.8,12.7,87.8,87.8,6.0,31.9,26.4,237.7,0.0,0.2346922
2024-05-07,15:20,87.8,12.1,87.8,87.8,5.9,35.5,26.9,239.4,0.0,0.2311997
2024-05-07,15:25,88.7,11.1,88.7,88.7,5.5,30.1,24.9,242.4,0.0,0.228486
2024-05-07,15:30,88,10.4,88.0,88,5.4,30.5,23.4,239,0.0,0.225445
2024-05-07,15:35,88.1,11.7,88.1,88.1,5.7,31,25.1,242.2,0.0,0.2216956
2024-05-07,15:40,88.1,10.9,88.1,88.1,5.5,31,27.1,247.5,0.0,0.2187483
2024-05-07,15:45,88.4,10.8,88.4,88.4,5.4,31,25.7,239.1,0.0,0.2149273
2024-05-07,15:50,88.1,11,88.1,88.1,5.5,34.4,27,250.1,0.0,0.2113554
2024-05-07,15:55,87.1,10.1,87.1,87.1,5.5,35.1,27.8,242,0.0,0.2082498
2024-05-07,16:00,87.8,9.6,87.8,87.8,5.3,33.5,27.7,241,0.0,0.2043548
2024-05-07,16:05,87.7,10.6,87.7,87.7,5.5,32.8,28.8,254.8,0.0,0.2005678
2024-05-07,16:10,88.2,10.9,88.2,88.2,5.5,32.6,26.2,251.5,0.0,0.1962164
2024-05-07,16:15,87.9,10.7,87.9,87.9,5.5,31,26.8,240.5,0.0,0.1916175
2024-05-07,16:20,88,10.4,88.0,88,5.4,33,27.7,256.1,0.0,0.1873947
2024-05-07,16:25,87.5,11.2,87.5,87.5,5.7,32.6,27.3,242,0.0,0.1830498
2024-05-07,16:30,87.3,11.1,87.3,87.3,5.7,34.6,26.9,251.3,0.0,0.1789921
2024-05-07,16:35,87.6,10.2,87.6,87.6,5.4,31.7,27.4,253.4,0.0,0.1747513
2024-05-07,16:40,87.5,11.6,87.5,87.5,5.8,32.8,26.8,249.4,0.0,0.1696846
2024-05-07,16:45,87.8,13.1,87.8,87.8,6.2,28.1,23.8,249.3,0.0,0.1643151
2024-05-07,16:50,88.1,13.6,88.1,88.1,6.2,27.4,23.1,254,0.0,0.1595734
2024-05-07,16:55,86.9,12.8,86.9,86.9,6.3,29.8,24,243.6,0.0,0.1217144
2024-05-07,17:00,87.6,11.4,87.6,87.6,5.7,29.6,21.9,249.7,0.0,0.0267431
2024-05-07,17:05,87.3,12.9,87.3,87.3,6.2,26.2,21.2,251,0.0,0.04660529
2024-05-07,17:10,87.3,12.1,87.3,87.3,6.0,24.4,20.2,241.8,0.0,0.1402737
2024-05-07,17:15,87.7,12.3,87.7,87.7,6.0,25.5,21.4,250.3,0.0,0.1362644
2024-05-07,17:20,87.1,12.6,87.1,87.1,6.2,26.9,21.7,245.4,0.0,0.1304169
2024-05-07,17:25,88.1,12.5,88.1,88.1,5.9,23.2,19.4,252.3,0.0,0.1268709
2024-05-07,17:30,86.8,11.5,86.8,86.8,5.9,25.1,20.6,247.2,0.0,0.1208467
2024-05-07,17:35,87,11.7,87.0,87,5.9,21.7,16.5,244.7,0.0,0.1161533
2024-05-07,17:40,87.2,12.7,87.2,87.2,6.2,23.3,17.4,250.6,0.0,0.1118198
2024-05-07,17:45,87.4,10.8,87.4,87.4,5.6,23.9,17.3,260.8,0.0,0.1062485
2024-05-07,17:50,86.9,11.6,86.9,86.9,5.9,20.5,16.4,239.4,0.0,0.1020877
2024-05-07,17:55,86.9,10.4,86.9,86.9,5.6,28,16.7,247.9,0.0,0.09779185
2024-05-07,18:00,87,11.9,87.0,87,6.0,20.5,16,235.7,0.0,0.09284814
2024-05-07,18:05,86.9,9.9,86.9,86.9,5.5,20.8,16.4,247.1,0.0,0.08780845
2024-05-07,18:10,86.9,8.2,86.9,86.9,5.1,24.8,19.1,258.8,0.0,0.08250543
2024-05-07,18:15,86.8,10.4,86.8,86.8,5.6,23.7,19.3,257.4,0.0,0.0769522
2024-05-07,18:20,86.3,8.6,86.3,86.3,5.3,25.8,20.6,250.7,0.0,0.07140104
2024-05-07,18:25,86.2,8.7,86.2,86.2,5.3,24.9,21,248,0.0,0.06701952
2024-05-07,18:30,86.2,9.1,86.2,86.2,5.4,24.2,21.4,247.4,0.0,0.06268362
2024-05-07,18:35,85.8,9.8,85.8,85.8,5.6,26.9,20.7,249.7,0.0,0.05782861
2024-05-07,18:40,85.6,8.5,85.6,85.6,5.4,28.9,24.2,253.8,0.0,0.05298859
2024-05-07,18:45,85.5,9,85.5,85.5,5.5,26,19.3,253.9,0.0,0.04860263
2024-05-07,18:50,85.4,9.1,85.4,85.4,5.5,23.2,19.5,245.5,0.0,0.04386885
2024-05-07,18:55,85.4,9.2,85.4,85.4,5.6,24.2,18.8,250,0.0,0.03937823
2024-05-07,19:00,84.8,10.1,84.8,84.8,5.9,24,18.5,246.8,0.0,0.03475558
2024-05-07,19:05,84.8,9.2,84.8,84.8,5.7,21,15.3,249.5,0.0,0.02952591
2024-05-07,19:10,84.5,10,84.5,84.5,6.0,21.9,16.1,252.4,0.0,0.02432207
2024-05-07,19:15,83.8,10.9,83.8,83.8,6.3,15.6,12.8,253.5,0.0,0.01908677
2024-05-07,19:20,83.9,9.7,83.9,83.9,6.0,19.4,13.4,252,0.0,0.01449278
2024-05-07,19:25,83.7,9.8,83.7,83.7,6.1,19.2,14.7,249.8,0.0,0.01076655
2024-05-07,19:30,82.8,9.2,82.8,82.8,6.1,16.5,12.5,249.7,0.0,0.007273629
2024-05-07,19:35,82.6,9.1,82.6,82.6,6.1,20.6,14,252,0.0,0.004622248
2024-05-07,19:40,82.1,9.2,82.1,82.1,6.2,17.2,13.1,249.4,0.0,0.00277854
2024-05-07,19:45,81.9,8.4,81.9,81.9,6.0,14.4,11.2,243.8,0.0,0.001608895
2024-05-07,19:50,81.4,7.3,81.4,81.4,5.8,13.5,11.4,240.7,0.0,0.0009673376
2024-05-07,19:55,81.6,6.6,81.6,81.6,5.6,16,13,241.2,0.0,0.0005464054
2024-05-07,20:00,81.4,6.2,81.4,81.4,5.5,15.5,13.4,242.7,0.0,0.0002448793
2024-05-07,20:05,81,6.1,81.0,81,5.6,17.4,13.7,245,0.0,0.00009511707
2024-05-07,20:10,80.4,6.6,80.4,80.4,5.8,18,13.9,248.3,0.0,0.00004452499
2024-05-07,20:15,80.5,7.1,80.5,80.5,6.0,16.4,13.6,246.2,0.0,0.000006071857
2024-05-07,20:20,80.1,7.7,80.1,80.1,6.2,16.2,13.6,247.5,0.0,0
2024-05-07,20:25,80.2,8.2,80.2,80.2,6.3,17.1,14.3,245.7,0.0,0
2024-05-07,20:30,79.8,8.9,79.8,79.8,6.6,17.2,14.5,248.3,0.0,0
2024-05-07,20:35,79.3,8.9,79.3,79.3,6.7,16.4,13.2,249.9,0.0,0
2024-05-07,20:40,79,9.3,79.0,79,6.9,15.1,12.9,248.7,0.0,0.000002024198
2024-05-07,20:45,78.2,9,78.2,78.2,7.0,13,10.9,248.7,0.0,0
2024-05-07,20:50,78.1,9.5,78.1,78.1,7.2,13.1,11.5,246.6,0.0,0
2024-05-07,20:55,77,9,77.0,77,7.3,12.6,11.1,245.2,0.0,0
2024-05-07,21:00,76.9,9.2,76.9,76.9,7.4,12.2,11.1,244.8,0.0,0
2024-05-07,21:05,75.9,9.3,75.9,75.9,7.6,11.9,10,242.5,0.0,0
2024-05-07,21:10,76,9.1,76.0,76,7.5,12.4,10.1,245.9,0.0,0
2024-05-07,21:15,75.8,9.4,75.8,75.8,7.7,12.4,10.4,247,0.0,0
2024-05-07,21:20,75.5,9.4,75.5,75.5,7.8,11.3,9.8,246.1,0.0,0.000002024155
2024-05-07,21:25,75.1,9.4,75.1,75.1,7.9,9.9,8.8,246.7,0.0,0
2024-05-07,21:30,74.1,10,74.1,74.1,8.4,9,8.1,249.7,0.0,0
2024-05-07,21:35,73.7,8.9,73.7,73.7,8.1,8.1,7.2,241.5,0.0,0.000002024193
2024-05-07,21:40,73.7,8.3,73.7,73.7,7.9,7.8,6.7,239.3,0.0,0
2024-05-07,21:45,73.5,8.2,73.5,73.5,7.9,8.3,7,237.6,0.0,0
2024-05-07,21:50,73.5,8.3,73.5,73.5,7.9,8.5,7.4,240.4,0.0,0
2024-05-07,21:55,73.5,8.8,73.5,73.5,8.1,8.8,7.8,238.8,0.0,0
2024-05-07,22:00,74.2,8.1,74.2,74.2,7.7,10.5,8.1,236.7,0.0,0
2024-05-07,22:05,74.8,8.4,74.8,74.8,7.6,10.1,8.4,235.5,0.0,0.000002024169
2024-05-07,22:10,74,8.4,74.0,74,7.8,9.6,7.8,234,0.0,0.000002024261
2024-05-07,22:15,73.3,8.7,73.3,73.3,8.1,8.5,7.3,226.5,0.0,0
2024-05-07,22:20,72.8,8.7,72.8,72.8,8.3,10.3,8.4,225.2,0.0,0.000004048511
2024-05-07,22:25,73.1,8.8,73.1,73.1,8.2,10.5,8.9,224.6,0.0,0
2024-05-07,22:30,73.1,9.1,73.1,73.1,8.3,10.6,8.8,228.2,0.0,0.000008097082
2024-05-07,22:35,73,9.1,73.0,73,8.3,10.5,8.5,227.6,0.0,0.000002024352
2024-05-07,22:40,72.8,9.6,72.8,72.8,8.6,9.7,7.6,230.2,0.0,0.000002024386
2024-05-07,22:45,72.6,9.9,72.6,72.6,8.8,9.2,7.5,227.5,0.0,0.000004048581
2024-05-07,22:50,71.8,9.8,71.8,71.8,9.0,8.1,6.7,229.5,0.0,0.000002024352
2024-05-07,22:55,71.1,10,71.1,71.1,9.3,6.9,5.8,228,0.0,0.000004048737
2024-05-07,23:00,71.1,10.1,71.1,71.1,9.3,7.6,6.1,226.3,0.0,0
2024-05-07,23:05,70.2,10,70.2,70.2,9.6,7.4,5.8,229.1,0.0,0.000002024327
2024-05-07,23:10,70,9.9,70.0,70,9.6,7.2,5.8,233.2,0.0,0
2024-05-07,23:15,69.7,9.8,69.7,69.7,9.6,7.4,5.5,238.4,0.0,0
2024-05-07,23:20,69.4,10.5,69.4,69.4,10.0,7.4,4.8,238.9,0.0,0
2024-05-07,23:25,70,10.7,70.0,70,9.9,9.2,7.2,232.7,0.0,0.000002024464
2024-05-07,23:30,69.5,10.5,69.5,69.5,10.0,8,6.8,236.9,0.0,0
2024-05-07,23:35,69.2,10.5,69.2,69.2,10.1,9.6,7.2,237.3,0.0,0.000002024502
2024-05-07,23:40,69.6,10.7,69.6,69.6,10.1,10.8,8.4,231.6,0.0,0
2024-05-07,23:45,69.5,10.7,69.5,69.5,10.1,9.7,8.2,233.3,0.0,0
2024-05-07,23:50,69,11.1,69.0,69,10.4,10.8,8.4,232,0.0,0
2024-05-07,23:55,69.3,11,69.3,69.3,10.3,9.4,8.4,230.5,0.0,0.000002024551
2024-05-08,00:00,69.6,10.8,69.6,69.6,10.1,10.5,9.1,229.4,0.0,0
2024-05-08,00:05,69.4,10.9,69.4,69.4,10.2,10.8,8.7,229.8,0.0,0.00000202472
2024-05-08,00:10,68.8,11.1,68.8,68.8,10.5,10.5,9,226.6,0.0,0.000004049293
2024-05-08,00:15,68.3,11,68.3,68.3,10.7,9.9,8.5,231.1,0.0,0.000002024737
2024-05-08,00:20,67.8,11,67.8,67.8,10.8,10.6,8.4,226.8,0.0,0.000004049533
2024-05-08,00:25,67.9,10.5,67.9,67.9,10.6,10.3,8,230.4,0.0,0.000002024643
2024-05-08,00:30,68.2,10.4,68.2,68.2,10.4,8.8,7.8,232.6,0.0,0.000002024666
2024-05-08,00:35,68.4,10.7,68.4,68.4,10.5,9.2,7.3,237.8,0.0,0
2024-05-08,00:40,67.4,10.5,67.4,67.4,10.7,7.4,4.4,235.1,0.0,0
2024-05-08,00:45,67.3,10.7,67.3,67.3,10.9,8.5,5.9,236,0.0,0
2024-05-08,00:50,66.8,10.4,66.8,66.8,10.9,7.2,6.4,240.5,0.0,0
2024-05-08,00:55,66.9,10.7,66.9,66.9,11.0,7.6,5.8,235.5,0.0,0
2024-05-08,01:00,67.7,10.7,67.7,67.7,10.7,9.2,7.1,234.8,0.0,0
2024-05-08,01:05,68.9,10.6,68.9,68.9,10.2,11,8.6,234.7,0.0,0
2024-05-08,01:10,69,10.7,69.0,69,10.3,10.1,8.5,233.6,0.0,0
2024-05-08,01:15,69.7,11,69.7,69.7,10.1,10.5,9,233.6,0.0,0
2024-05-08,01:20,69.6,11,69.6,69.6,10.2,11.5,8.9,227.8,0.0,0.000002024829
2024-05-08,01:25,69.1,10.9,69.1,69.1,10.3,11,9.3,225.1,0.0,0
2024-05-08,01:30,69.1,10.7,69.1,69.1,10.2,11.7,9.3,230.3,0.0,0.000002024845
2024-05-08,01:35,68.8,10.3,68.8,68.8,10.1,10.6,9.1,230.3,0.0,0
2024-05-08,01:40,68.8,10.3,68.8,68.8,10.2,11.2,8.4,231.8,0.0,0
2024-05-08,01:45,68.9,10.6,68.9,68.9,10.3,10.1,8.4,229.9,0.0,0
2024-05-08,01:50,69,10.4,69.0,69,10.1,9.6,7.5,232.5,0.0,0
2024-05-08,01:55,69.1,10.1,69.1,69.1,10.0,11.9,7.4,235.8,0.0,0
2024-05-08,02:00,70.2,10.2,70.2,70.2,9.6,13.1,10.5,237.7,0.0,0
2024-05-08,02:05,69.9,10.9,69.9,69.9,10.1,11.7,9.9,238.4,0.0,0
2024-05-08,02:10,69.3,10.4,69.3,69.3,10.0,11.3,9,240.9,0.0,0
2024-05-08,02:15,69.2,10.7,69.2,69.2,10.2,10.8,8.6,241.6,0.0,0
2024-05-08,02:20,68.4,10.4,68.4,68.4,10.4,9.7,8.3,239.1,0.0,0
2024-05-08,02:25,68.3,10.4,68.3,68.3,10.4,11.3,9.9,237.2,0.0,0
2024-05-08,02:30,68.1,10.6,68.1,68.1,10.5,12.4,10.7,240.1,0.0,0
2024-05-08,02:35,67.6,10.5,67.6,67.6,10.7,12.1,10.9,241.2,0.0,0
2024-05-08,02:40,67.9,10.6,67.9,67.9,10.6,13.1,11.2,244.4,0.0,0
2024-05-08,02:45,68.4,10.7,68.4,68.4,10.5,13.1,11.3,246.4,0.0,0
2024-05-08,02:50,68,10.9,68.0,68,10.7,12.6,10.7,243.3,0.0,0
2024-05-08,02:55,68,10.7,68.0,68,10.6,13,11.6,243.8,0.0,0
2024-05-08,03:00,67.3,10.8,67.3,67.3,10.9,14.6,11.8,246,0.0,0
2024-05-08,03:05,67,10.5,67.0,67,10.9,13.5,11.8,245.7,0.0,0
2024-05-08,03:10,67.4,10.6,67.4,67.4,10.8,13.9,11.8,245,0.0,0
2024-05-08,03:15,67.8,10.9,67.8,67.8,10.8,13.7,12,244.5,0.0,0
2024-05-08,03:20,67.7,11,67.7,67.7,10.9,12.8,11.2,244.7,0.0,0
2024-05-08,03:25,68.1,10.8,68.1,68.1,10.6,13.5,11.6,244.6,0.0,0
2024-05-08,03:30,68.1,10.8,68.1,68.1,10.6,14,11.7,243.2,0.0,0
2024-05-08,03:35,67.5,11.1,67.5,67.5,11,13,10.9,246.2,0.0,0
2024-05-08,03:40,66.9,10.7,66.9,66.9,11.0,11.5,10.3,244.2,0.0,0
2024-05-08,03:45,66.4,10.5,66.4,66.4,11.1,11.9,9.7,245.6,0.0,0
2024-05-08,03:50,66.1,10.5,66.1,66.1,11.2,12.1,9.9,240.7,0.0,0
2024-05-08,03:55,65.4,10.5,65.4,65.4,11.5,11,9.6,241.7,0.0,0
2024-05-08,04:00,65.3,11,65.3,65.3,11.8,10.6,8.5,243,0.0,0
2024-05-08,04:05,64.1,11.3,64.1,64.1,12.5,7.8,6.5,250.1,0.0,0
2024-05-08,04:10,63.2,11.1,63.2,63.2,12.8,6.9,5.8,253.7,0.0,0
2024-05-08,04:15,62.6,11.4,62.6,62.6,13.2,6.2,1.5,251.9,0.0,0
2024-05-08,04:20,61.9,11.7,61.9,61.9,13.8,0,0,0,0.0,0
2024-05-08,04:25,60.6,13.2,60.6,60.6,15.4,0,0,0,0.0,0
2024-05-08,04:30,60.2,12.3,60.2,60.2,15.0,0,0,0,0.0,0
2024-05-08,04:35,60.2,11.4,60.2,60.2,14.4,0,0,0,0.0,0
2024-05-08,04:40,59.9,11.9,59.9,59.9,14.9,5.5,1.2,264.2,0.0,0
2024-05-08,04:45,59.5,11.8,59.5,59.5,15.0,5.6,5,258.7,0.0,0
2024-05-08,04:50,58.8,12.3,58.8,58.8,15.7,5.6,4.6,259.7,0.0,0
2024-05-08,04:55,58.8,12.4,58.8,58.8,15.8,5.5,4.4,251.5,0.0,0
2024-05-08,05:00,59.3,11.5,59.3,59.3,15.0,5.1,4.3,250.6,0.0,0
2024-05-08,05:05,59,11.9,59.0,59,15.4,5.6,1.7,260.7,0.0,0
2024-05-08,05:10,59,11.5,59.0,59,15.1,6,5.3,255.3,0.0,0
2024-05-08,05:15,58.7,11.6,58.7,58.7,15.3,6.5,4.9,257.3,0.0,0
2024-05-08,05:20,58.6,12.5,58.6,58.6,16.0,6.5,5.7,259.3,0.0,0
2024-05-08,05:25,58.3,12.1,58.3,58.3,15.9,6.7,5.7,260.4,0.0,0
2024-05-08,05:30,57.9,12.4,57.9,57.9,16.3,4.9,0.5,260,0.0,0
2024-05-08,05:35,58,12.9,58.0,58,16.7,0,0,0,0.0,0
2024-05-08,05:40,56.8,13.6,56.8,56.8,18.0,0.8,0,328.9,0.0,0
2024-05-08,05:45,58.7,13.7,58.7,58.7,16.8,9.2,2.2,310.4,0.0,0.00006075091
2024-05-08,05:50,60,14.1,60.0,60,16.3,9.9,7.3,300.6,0.0,0.0001660585
2024-05-08,05:55,59.4,14.1,59.4,59.4,16.7,7.6,6,314.8,0.0,0.0003766685
2024-05-08,06:00,58.4,13.8,58.4,58.4,17.1,7.6,6.2,304.6,0.0,0.0007290471
2024-05-08,06:05,58.4,13.6,58.4,58.4,16.9,7.4,5.3,291.9,0.0,0.001255617
2024-05-08,06:10,58.1,11,58.1,58.1,15.2,7.2,5.9,276.6,0.0,0.001986664
2024-05-08,06:15,56.9,14.3,56.9,56.9,18.4,8.5,6.2,320.5,0.0,0.002944569
2024-05-08,06:20,59.9,11,59.9,59.9,14.3,10.8,7.8,272.2,0.0,0.005064947
2024-05-08,06:25,58.5,15.6,58.5,58.5,18.4,8,3.5,287.2,0.0,0.007898081
2024-05-08,06:30,58.6,14.5,58.6,58.6,17.5,6.3,3.8,272.6,0.0,0.01134912
2024-05-08,06:35,58.3,15.7,58.3,58.3,18.7,6.7,5.6,305.1,0.0,0.01559208
2024-05-08,06:40,57.6,15.4,57.6,57.6,18.8,8.3,7,337,0.0,0.02046859
2024-05-08,06:45,58.1,13.6,58.1,58.1,17.1,7.4,6,2.2,0.0,0.02566126
2024-05-08,06:50,57.1,13.6,57.1,57.1,17.7,9.4,6.7,351.4,0.0,0.03104839
2024-05-08,06:55,58.2,15.2,58.2,58.2,18.2,5.3,3.7,346.6,0.0,0.03577286
2024-05-08,07:00,58.5,16.5,58.5,58.5,19.1,5.6,5,333.4,0.0,0.03987472
2024-05-08,07:05,58.4,18,58.4,58.4,20.5,6.2,1.5,340.5,0.0,0.04428886
2024-05-08,07:10,58.3,19.2,58.3,58.3,21.7,0,0,0,0.0,0.04871635
2024-05-08,07:15,59,22.1,59.0,59,23.9,0,0,0,0.0,0.0532371
2024-05-08,07:20,59.5,22.9,59.5,59.5,24.3,0,0,0,0.0,0.05776013
2024-05-08,07:25,60.4,20.7,60.4,60.4,21.4,0,0,0,0.0,0.06249903
2024-05-08,07:30,61.7,19.7,61.7,61.7,19.6,0,0,0,0.0,0.06720252
2024-05-08,07:35,62.5,26.3,62.5,62.5,25.1,0.8,0,0.6,0.0,0.07206425
2024-05-08,07:40,63.1,22.4,63.1,63.1,20.9,4.7,2.5,316.8,0.0,0.07697334
2024-05-08,07:45,63.6,20.2,63.6,63.6,18.7,5.3,4.3,319.3,0.0,0.08184636
2024-05-08,07:50,64.1,19.7,64.1,64.1,18.0,6.7,5.3,346.8,0.0,0.0867918
2024-05-08,07:55,64.6,28.3,64.6,64.6,25.4,5.8,3.6,327.6,0.0,0.09166668
2024-05-08,08:00,65.7,17.9,65.7,65.7,15.8,5.3,3,349.3,0.0,0.09650207
2024-05-08,08:05,67,24.1,67.0,67,19.6,3.3,2,346.7,0.0,0.1013896
2024-05-08,08:10,67.6,18.6,67.6,67.6,15.2,3.8,3,284.3,0.0,0.1063297
2024-05-08,08:15,67.9,24.6,67.9,67.9,19.4,3.7,2.9,308.5,0.0,0.1111518
2024-05-08,08:20,69.9,16.5,69.9,69.9,12.9,4.2,2.4,28.5,0.0,0.1156029
2024-05-08,08:25,71.6,15.8,71.6,71.6,11.8,1.9,0.2,34.6,0.0,0.1207978
2024-05-08,08:30,72.8,22.7,72.8,72.8,15.1,2.6,0.9,3.1,0.0,0.1254485
2024-05-08,08:35,72.8,22.4,72.8,72.8,15.0,3,0.5,1.4,0.0,0.1302694
2024-05-08,08:40,73.6,18,73.6,73.6,12.1,0,0,0,0.0,0.1354203
2024-05-08,08:45,74.8,21.1,74.8,74.8,13.2,4.2,1.4,28.1,0.0,0.1402483
2024-05-08,08:50,75.1,13.9,75.1,75.1,9.6,0,0,0,0.0,0.1450467
2024-05-08,08:55,74.2,17.7,74.2,74.2,11.7,6.7,1.4,66.5,0.0,0.1497186
2024-05-08,09:00,74.5,15.4,74.5,74.5,10.5,4.7,3.4,76.6,0.0,0.1542907
2024-05-08,09:05,74.7,17.9,74.7,74.7,11.6,5.6,4.3,87.5,0.0,0.1588146
2024-05-08,09:10,75.3,16.3,75.3,75.3,10.6,4.6,1.8,51.1,0.0,0.1633755
2024-05-08,09:15,75,18.8,75.0,75,11.9,5.6,2.5,83.2,0.0,0.1677969
2024-05-08,09:20,75.6,16.8,75.6,75.6,10.7,6.5,1.2,79.8,0.0,0.1723118
2024-05-08,09:25,76,16.5,76.0,76,10.5,4.7,0.9,85.2,0.0,0.1765999
2024-05-08,09:30,76.5,16.4,76.5,76.5,10.3,6.3,4.2,87.2,0.0,0.1810008
2024-05-08,09:35,77.1,16.8,77.1,77.1,10.2,6.9,4.2,78.8,0.0,0.1850857
2024-05-08,09:40,77,16.2,77.0,77,10.0,7.4,4.2,68.6,0.0,0.1892408
2024-05-08,09:45,77.6,20.1,77.6,77.6,11.6,7.8,5.6,90.1,0.0,0.1933127
2024-05-08,09:50,77.1,17.3,77.1,77.1,10.4,10.1,6.7,114.4,0.0,0.1972303
2024-05-08,09:55,77.4,22.3,77.4,77.4,12.8,8.3,5.8,108.7,0.0,0.2012904
2024-05-08,10:00,77.9,16.3,77.9,77.9,9.7,8,4.1,96.6,0.0,0.2047887
2024-05-08,10:05,78.6,19.7,78.6,78.6,11.0,7.8,5.4,103.2,0.0,0.2083084
2024-05-08,10:10,79.4,15.7,79.4,79.4,9.0,7.1,4.8,80.1,0.0,0.2118561
2024-05-08,10:15,79.4,16.3,79.4,79.4,9.3,7.2,3.7,85.3,0.0,0.2152983
2024-05-08,10:20,80.7,18.8,80.7,80.7,9.9,8.8,4,21.7,0.0,0.2187629
2024-05-08,10:25,80.9,17.9,80.9,80.9,9.5,7.1,1.7,65.4,0.0,0.2224008
2024-05-08,10:30,80.1,16.4,80.1,80.1,9.1,10.6,3.6,120.3,0.0,0.2260792
2024-05-08,10:35,80.3,16.8,80.3,80.3,9.2,5.6,1.3,107.7,0.0,0.2292781
2024-05-08,10:40,80.8,15.3,80.8,80.8,8.5,0,0,0,0.0,0.2321879
2024-05-08,10:45,80.9,14.6,80.9,80.9,8.2,8.3,1.3,89.7,0.0,0.235292
2024-05-08,10:50,81.9,16.6,81.9,81.9,8.6,8,4,59.2,0.0,0.238671
2024-05-08,10:55,82.5,19.7,82.5,82.5,9.7,7.1,4.1,18.4,0.0,0.2279057
2024-05-08,11:00,82.2,15.1,82.2,82.2,8.0,9.6,4.4,35.2,0.0,0.2445216
2024-05-08,11:05,81.9,16.3,81.9,81.9,8.5,0,0,0,0.0,0.2471433
2024-05-08,11:10,82,15.4,82.0,82,8.2,0,0,0,0.0,0.2497223
2024-05-08,11:15,82.3,20.8,82.3,82.3,10.2,0,0,0,0.0,0.2522455
2024-05-08,11:20,83.3,26.4,83.3,83.3,12.5,32.3,13.6,259.7,0.0,0.2535727
2024-05-08,11:25,80,28.7,80.0,80,15.3,17.1,11.3,313.5,0.0,0.2560022
2024-05-08,11:30,81.2,21.6,81.2,81.2,11.0,13,9.4,343.8,0.0,0.25799
2024-05-08,11:35,83.2,14.6,83.2,83.2,7.6,11.9,7.8,284.1,0.0,0.2602717
2024-05-08,11:40,84.1,14.2,84.1,84.1,7.2,9.9,6.5,207.8,0.0,0.2623085
2024-05-08,11:45,84.7,15.6,84.7,84.7,7.6,16.7,11.3,224.8,0.0,0.2637792
2024-05-08,11:50,85.5,18.3,85.5,85.5,8.3,19.4,14.8,237.1,0.0,0.2613966
2024-05-08,11:55,84.3,16.8,84.3,84.3,8.1,10.3,5.7,291.1,0.0,0.2651359
2024-05-08,12:00,,,,,,,,,,
